OH2NJR Weather Reports


time (UTC)temp
C
wind
direction
speed
KPH
gust
KPH
rain 1hr
cm
rain 24hr
cm
rain mn
cm
humidity
%
barometer
mb
20260506122848 6 203 14.5 24.1 0.00 0.00 0.00 63 1013.8
20260506121242 7 199 11.3 22.5 0.00 0.00 0.00 62 1013.8
20260506115543 6 199 14.5 25.7 0.00 0.00 0.00 69 1013.8
20260506115538 6 199 14.5 25.7 0.00 0.00 0.00 69 1013.8
20260506113643 7 190 8.0 20.9 0.00 0.00 0.00 60 1013.8
20260506112013 8 192 9.7 20.9 0.00 0.00 0.00 58 1013.7
20260506110203 7 196 17.7 27.4 0.00 0.00 0.00 64 13.7
20260506110200 7 196 17.7 27.4 0.00 0.00 0.00 64 1013.7
20260506104604 7 199 9.7 19.3 0.00 0.00 0.00 58 1013.7
20260506104558 7 199 9.7 19.3 0.00 0.00 0.00 58 1013.7
20260506102718 7 205 6.4 12.9 0.00 0.00 0.00 60 1013.7
20260506100723 10 128 3.2 8.0 0.00 0.00 0.00 47 1013.6
20260506094751 -17 206 6.4 14.5 0.00 0.00 0.00 46 1013.4
20260506094748 10 206 6.4 14.5 0.00 0.00 0.00 46 1013.4
20260506092943 10 183 3.2 8.0 0.00 0.00 0.00 30 1013.3
20260506091113 10 357 3.2 6.4 0.00 0.00 0.00 31 1013.3
20260506085233 8 341 4.8 9.7 0.00 0.00 0.00 44 1013.0
20260506083608 8 291 3.2 6.4 0.00 0.00 0.00 41 1013.0
20260506081738 8 299 4.8 16.1 0.00 0.00 0.00 44 1012.9
20260506072321 8 62 4.8 0.0 0.00 0.00 0.00 49 1012.6
20260506072318 8 62 4.8 8.0 0.00 0.00 0.00 49 1012.6
20260506070430 7 284 3.2 9.7 0.00 0.00 0.00 49 1012.5
20260506061228 6 15 3.2 8.0 0.00 0.00 0.00 58 1012.3
20260506050238 4 162 3.2 9.7 0.00 0.00 0.00 69 1011.6
20260506044533 2 303 8.0 14.5 0.00 0.00 0.00 78 1011.2
20260506042648 2 94 1.6 4.8 0.00 0.00 0.00 77 1011.0
20260506040728 2 346 3.2 6.4 0.00 0.00 0.00 78 1010.9
20260506034838 2 103 3.2 9.7 0.00 0.00 0.00 78 1010.8
20260506032903 2 95 1.6 8.0 0.00 0.00 0.00 78 1010.6
20260506031038 2 42 1.6 4.8 0.00 0.00 0.00 78 1010.6
20260506025228 2 71 1.6 4.8 0.00 0.00 0.00 78 1010.4
20260506023303 2 44 1.6 4.8 0.00 0.00 0.00 78 1010.2
20260506021658 1 316 3.2 6.4 0.00 0.00 0.00 78 1010.1
20260506015758 1 305 3.2 6.4 0.00 0.00 0.00 77 1010.1
20260506014134 1 301 3.2 8.0 0.00 0.00 0.00 78 1010.0
20260506012353 2 293 6.4 11.3 0.00 0.00 0.00 77 1010.0
20260506010417 2 305 3.2 9.7 0.00 0.00 0.00 76 1009.9
20260506004558 2 338 3.2 9.7 0.00 0.00 0.00 75 1009.3
20260506002842 2 96 3.2 9.7 0.00 0.00 0.00 73 1009.2
20260506001129 3 254 3.2 9.7 0.00 0.00 0.00 74 1009.1
20260506001123 3 254 3.2 9.7 0.00 0.00 0.00 74 1009.1
20260505235247 3 344 4.8 8.0 0.00 0.00 0.00 74 1009.0
20260505233623 3 335 3.2 8.0 0.00 0.00 0.00 73 1008.8
20260505231938 3 342 4.8 14.5 0.00 0.00 0.00 72 1008.8
20260505230258 3 160 3.2 9.7 0.00 0.00 0.00 70 1008.6
20260505224648 3 352 3.2 9.7 0.00 0.00 0.00 71 1008.6
20260505222808 3 351 4.8 11.3 0.00 0.00 0.00 70 1008.6
20260505221033 3 97 4.8 14.5 0.00 0.00 0.00 68 1008.4
20260505215118 4 24 4.8 9.7 0.00 0.00 0.00 67 1008.4
20260505213143 4 100 3.2 12.9 0.00 0.00 0.00 65 1008.3
20260505211528 5 133 3.2 9.7 0.00 0.00 0.00 63 1008.1
20260505205929 5 21 3.2 11.3 0.00 0.00 0.00 58 1007.3
20260505203953 6 150 4.8 12.9 0.00 0.00 0.00 57 1007.2
20260505202033 6 298 4.8 12.9 0.00 0.00 0.00 54 1007.2
20260505200333 6 115 3.2 9.7 0.00 0.00 0.00 50 1007.0
20260505194648 6 41 4.8 11.3 0.00 0.00 0.00 49 1006.9
20260505192658 7 113 4.8 11.3 0.00 0.00 0.00 45 1006.9
20260505190823 7 59 4.8 11.3 0.00 0.00 0.00 46 1006.6
20260505185043 7 99 3.2 8.0 0.00 0.00 0.00 46 1006.4
20260505183343 7 122 4.8 16.1 0.00 0.00 0.00 42 1006.3
20260505181528 7 333 6.4 12.9 0.00 0.00 0.00 45 1006.1
20260505175548 8 110 6.4 14.5 0.00 0.00 0.00 45 1006.0
20260505173753 8 271 6.4 14.5 0.00 0.00 0.00 43 1006.0
20260505171819 8 149 4.8 14.5 0.00 0.00 0.00 42 1005.9
20260505165942 10 339 6.4 16.1 0.00 0.00 0.00 33 1005.4
20260505164343 10 125 6.4 12.9 0.00 0.00 0.00 37 1005.2
20260505162518 10 305 6.4 14.5 0.00 0.00 0.00 38 1005.1
20260505160726 10 110 4.8 9.7 0.00 0.00 0.00 33 1005.1
20260505153120 11 323 6.4 16.1 0.00 0.00 0.00 35 1004.9
20260505151128 10 349 6.4 12.9 0.00 0.00 0.00 35 1005.0
20260505130303 11 78 8.0 17.7 0.00 0.00 0.00 38 1004.2
20260505124531 10 354 4.8 17.7 0.00 0.00 0.00 45 1004.0
20260505124523 10 354 4.8 17.7 0.00 0.00 0.00 45 1004.0